Weather History for Monument Pass, CO

Change the Weather History Date:

Saturday, December 15, 2012

  Actual Average (KAPA) Record (KAPA)
Temperature  
Mean Temperature 28 °F -  
Max Temperature 37 °F 40 °F 62 °F (2006)
Min Temperature 19 °F 17 °F -8 °F (2008)
Degree Days  
Heating Degree Days 37    
Moisture  
Dew Point 19 °F    
Average Humidity 64    
Maximum Humidity 86    
Minimum Humidity 48    
Precipitation  
Precipitation 0.00 in - - ()
Sea Level Pressure  
Sea Level Pressure 29.69 in    
Wind  
Wind Speed 9 mph (SW)    
Max Wind Speed 20 mph    
Max Gust Speed 24 mph    
Visibility 10 miles    
Events      
Averages and records for this station are not official NWS values.
T = Trace of Precipitation, MM = Missing Value Source: NWS Daily Summary

Daily Weather History Graph

Daily Weather History Graph

Search for Another Location

Airport:

Trip Planner

Search our weather history database for the weather conditions in past years. The results will help you decide how hot, cold, wet, or windy it might be!

Date:

Astronomy

Dec. 15, 2012 Rise Set
Actual Time 7:11 AM MST 4:36 PM MST
Civil Twilight 6:41 AM MST 5:06 PM MST
Nautical Twilight 6:07 AM MST 5:40 PM MST
Astronomical Twilight 5:34 AM MST 6:13 PM MST
Moon 9:06 AM MST (12/15) 7:42 PM MST (12/15)
Length of Visible Light 10h 25m
Length of Day
9h 25m
Waxing Crescent, 9% of the Moon is Illuminated
Dec 15
Waxing Crescent
Dec 19
First Quarter
Dec 28
Full
Jan 4
Last Quarter
Jan 11
New

Hourly Weather History & Observations

Time (MST) Temp. Windchill Dew Point Humidity Pressure Visibility Wind Dir Wind Speed Gust Speed Precip Events Conditions
12:13 AM 23.0 °F 13.9 °F 15.8 °F 74% 29.63 in 10.0 mi West 8.1 mph - N/A   Clear
12:34 AM 23.0 °F 13.1 °F 15.8 °F 74% 29.63 in 10.0 mi West 9.2 mph - N/A   Clear
12:53 AM 23.0 °F 13.1 °F 15.8 °F 74% 29.64 in 10.0 mi WSW 9.2 mph - N/A   Clear
1:14 AM 24.8 °F 15.3 °F 15.8 °F 69% 29.65 in 10.0 mi WSW 9.2 mph - N/A   Clear
1:34 AM 26.6 °F 18.2 °F 17.6 °F 69% 29.66 in 10.0 mi WSW 8.1 mph - N/A   Clear
1:54 AM 28.4 °F 19.1 °F 17.6 °F 64% 29.66 in 10.0 mi SW 10.4 mph - N/A   Clear
2:14 AM 26.6 °F 17.5 °F 17.6 °F 69% 29.66 in 10.0 mi SSW 9.2 mph - N/A   Clear
2:35 AM 28.4 °F 21.2 °F 17.6 °F 64% 29.67 in 10.0 mi SW 6.9 mph - N/A   Clear
2:54 AM 26.6 °F 17.5 °F 17.6 °F 69% 29.67 in 10.0 mi SW 9.2 mph - N/A   Clear
3:14 AM 30.2 °F 21.9 °F 15.8 °F 55% 29.68 in 10.0 mi SW 9.2 mph - N/A   Clear
3:34 AM 26.6 °F 16.8 °F 15.8 °F 64% 29.67 in 10.0 mi SW 10.4 mph - N/A   Clear
3:54 AM 30.2 °F 20.2 °F 14.0 °F 51% 29.67 in 10.0 mi SW 12.7 mph - N/A   Clear
4:14 AM 28.4 °F 18.0 °F 14.0 °F 55% 29.67 in 10.0 mi WSW 12.7 mph - N/A   Clear
4:34 AM 30.2 °F 20.2 °F 14.0 °F 51% 29.66 in 10.0 mi SW 12.7 mph - N/A   Clear
4:55 AM 30.2 °F 21.3 °F 14.0 °F 51% 29.67 in 10.0 mi SW 10.4 mph - N/A   Clear
5:14 AM 30.2 °F 24.3 °F 14.0 °F 51% 29.67 in 10.0 mi SSW 5.8 mph - N/A   Clear
5:34 AM 26.6 °F 21.2 °F 14.0 °F 59% 29.67 in 10.0 mi SW 4.6 mph - N/A   Clear
5:55 AM 26.6 °F 20.0 °F 14.0 °F 59% 29.68 in 10.0 mi SSW 5.8 mph - N/A   Clear
6:14 AM 32.0 °F 24.2 °F 15.8 °F 51% 29.69 in 10.0 mi SW 9.2 mph - N/A   Clear
6:34 AM 30.2 °F 21.3 °F 17.6 °F 60% 29.69 in 10.0 mi SW 10.4 mph - N/A   Clear
6:54 AM 32.0 °F 23.0 °F 17.6 °F 55% 29.70 in 10.0 mi SW 11.5 mph - N/A   Clear
7:14 AM 32.0 °F 23.6 °F 17.6 °F 55% 29.70 in 10.0 mi SW 10.4 mph - N/A   Clear
7:34 AM 32.0 °F 22.5 °F 17.6 °F 55% 29.69 in 10.0 mi WSW 12.7 mph - N/A   Clear
7:54 AM 32.0 °F 22.5 °F 17.6 °F 55% 29.70 in 10.0 mi WSW 12.7 mph - N/A   Clear
8:14 AM 32.0 °F 22.5 °F 17.6 °F 55% 29.70 in 10.0 mi SW 12.7 mph - N/A   Scattered Clouds
8:34 AM 33.8 °F 24.8 °F 19.4 °F 56% 29.70 in 10.0 mi SW 12.7 mph 18.4 mph N/A   Overcast
8:54 AM 32.0 °F 21.2 °F 19.4 °F 60% 29.71 in 10.0 mi WSW 16.1 mph 19.6 mph N/A   Overcast
9:13 AM 33.8 °F 22.5 °F 19.4 °F 56% 29.71 in 10.0 mi WSW 19.6 mph - N/A   Overcast
9:34 AM 33.8 °F 23.5 °F 17.6 °F 52% 29.73 in 10.0 mi SW 16.1 mph 21.9 mph N/A   Overcast
9:53 AM 35.6 °F 28.0 °F 17.6 °F 48% 29.73 in 10.0 mi SW 10.4 mph - N/A   Overcast
10:14 AM 35.6 °F 26.2 °F 17.6 °F 48% 29.74 in 10.0 mi SW 15.0 mph - N/A   Overcast
10:33 AM 35.6 °F 25.9 °F 21.2 °F 56% 29.75 in 10.0 mi SW 16.1 mph - N/A   Overcast
10:54 AM 35.6 °F 26.6 °F 21.2 °F 56% 29.75 in 10.0 mi SW 13.8 mph - N/A   Overcast
11:14 AM 35.6 °F 24.8 °F 23.0 °F 60% 29.74 in 10.0 mi SW 19.6 mph 24.2 mph N/A   Overcast
11:34 AM 35.6 °F 28.0 °F 23.0 °F 60% 29.73 in 10.0 mi SSW 10.4 mph 18.4 mph N/A   Overcast
11:54 AM 35.6 °F 28.0 °F 23.0 °F 60% 29.72 in 10.0 mi South 10.4 mph - N/A   Overcast
12:14 PM 35.6 °F 28.6 °F 23.0 °F 60% 29.71 in 10.0 mi South 9.2 mph - N/A   Overcast
12:34 PM 35.6 °F 28.6 °F 23.0 °F 60% 29.70 in 10.0 mi SSW 9.2 mph - N/A   Overcast
12:54 PM 35.6 °F 27.5 °F 21.2 °F 56% 29.69 in 10.0 mi South 11.5 mph - N/A   Overcast
1:14 PM 35.6 °F 28.6 °F 21.2 °F 56% 29.68 in 10.0 mi South 9.2 mph - N/A   Overcast
1:34 PM 35.6 °F 29.9 °F 24.8 °F 65% 29.67 in 10.0 mi SSE 6.9 mph - N/A   Mostly Cloudy
1:54 PM 35.6 °F 30.7 °F 23.0 °F 60% 29.67 in 10.0 mi SSW 5.8 mph - N/A   Overcast
2:14 PM 35.6 °F 28.0 °F 24.8 °F 65% 29.68 in 10.0 mi South 10.4 mph - N/A   Scattered Clouds
2:34 PM 33.8 °F 27.0 °F 24.8 °F 70% 29.68 in 10.0 mi South 8.1 mph - N/A   Mostly Cloudy
3:14 PM 37.4 °F 30.8 °F 21.2 °F 52% 29.67 in 10.0 mi SSW 9.2 mph - N/A   Clear
3:34 PM 37.4 °F 32.1 °F 19.4 °F 48% 29.67 in 10.0 mi SW 6.9 mph - N/A   Clear
3:54 PM 37.4 °F 32.1 °F 21.2 °F 52% 29.68 in 10.0 mi South 6.9 mph - N/A   Clear
4:14 PM 32.0 °F 25.6 °F 23.0 °F 69% 29.68 in 10.0 mi South 6.9 mph - N/A   Scattered Clouds
4:34 PM 32.0 °F 24.2 °F 23.0 °F 69% 29.68 in 10.0 mi South 9.2 mph - N/A   Clear
4:54 PM 30.2 °F 21.9 °F 23.0 °F 75% 29.68 in 10.0 mi South 9.2 mph - N/A   Clear
5:14 PM 26.6 °F 18.2 °F 21.2 °F 80% 29.68 in 10.0 mi South 8.1 mph - N/A   Clear
5:34 PM 30.2 °F 25.4 °F 21.2 °F 69% 29.69 in 10.0 mi South 4.6 mph - N/A   Scattered Clouds
5:53 PM 30.2 °F 25.4 °F 19.4 °F 64% 29.69 in 10.0 mi South 4.6 mph - N/A   Mostly Cloudy
6:14 PM 28.4 °F 21.2 °F 19.4 °F 69% 29.69 in 10.0 mi SSE 6.9 mph - N/A   Scattered Clouds
6:34 PM 26.6 °F 21.2 °F 19.4 °F 74% 29.69 in 10.0 mi South 4.6 mph - N/A   Scattered Clouds
6:54 PM 26.6 °F 20.0 °F 19.4 °F 74% 29.69 in 10.0 mi South 5.8 mph - N/A   Scattered Clouds
7:14 PM 26.6 °F 21.2 °F 19.4 °F 74% 29.69 in 10.0 mi SSW 4.6 mph - N/A   Clear
7:34 PM 28.4 °F 21.2 °F 19.4 °F 69% 29.69 in 10.0 mi SSW 6.9 mph - N/A   Clear
7:54 PM 28.4 °F 23.3 °F 19.4 °F 69% 29.69 in 10.0 mi SW 4.6 mph - N/A   Clear
8:14 PM 26.6 °F 20.0 °F 19.4 °F 74% 29.69 in 10.0 mi SW 5.8 mph - N/A   Clear
8:34 PM 28.4 °F 21.2 °F 19.4 °F 69% 29.68 in 10.0 mi SW 6.9 mph - N/A   Clear
8:54 PM 26.6 °F 21.2 °F 19.4 °F 74% 29.68 in 10.0 mi West 4.6 mph - N/A   Clear
9:14 PM 24.8 °F 17.9 °F 19.4 °F 80% 29.68 in 10.0 mi WSW 5.8 mph - N/A   Clear
9:33 PM 24.8 °F 17.9 °F 19.4 °F 80% 29.68 in 10.0 mi West 5.8 mph - N/A   Clear
9:53 PM 23.0 °F 14.7 °F 17.6 °F 80% 29.68 in 10.0 mi West 6.9 mph - N/A   Clear
10:14 PM 21.2 °F 10.9 °F 17.6 °F 86% 29.69 in 10.0 mi West 9.2 mph - N/A   Clear
10:34 PM 21.2 °F 11.7 °F 17.6 °F 86% 29.69 in 10.0 mi West 8.1 mph - N/A   Clear
10:53 PM 19.4 °F 11.5 °F 14.0 °F 80% 29.68 in 10.0 mi West 5.8 mph - N/A   Clear
11:14 PM 23.0 °F 18.4 °F 17.6 °F 80% 29.68 in 10.0 mi SW 3.5 mph - N/A   Clear
11:54 PM 23.0 °F 15.8 °F 14.0 °F 68% 29.68 in 10.0 mi SW 5.8 mph - N/A   Clear